Weather observations for the past three days for
Nelson Lagoon
Imperial (Metric)
Date Time (akdt) Wind (mph) Vis. (mi.) Weather Sky Cond. Temperature (ºF) Relative Humidity Wind Chill (°F) Heat Index (°F) Pressure Precipitation (in)
Air Dwpt 6 hour altimeter (in) sea level (mb) 1 hr 3 hr 6 hr
Max. Min.
15 15:56 W 18 10.00 Overcast OVC007 46 45 46 45 96% 39 29.88 1011.9
15 14:56 W 16 5.00 Fog/Mist OVC003 45 44.1 97% 38 29.87 1011.5
15 13:56 W 16 10.00 Overcast OVC005 46 44.1 93% 40 29.87 1011.3
15 12:56 W 18 7.00 Overcast OVC005 45 44.1 97% 38 29.86 1011.0
15 11:56 W 20 6.00 Fog/Mist OVC005 45 44.1 97% 38 29.85 1010.7
15 10:56 W 15 G 22 10.00 Overcast OVC007 45 44.1 97% 39 29.85 1010.7
15 09:56 W 17 10.00 Overcast BKN007 OVC017 45 44.1 45 45 97% 38 29.85 1010.6
15 08:56 W 16 9.00 Overcast OVC007 45 44.1 97% 38 29.84 1010.3
15 07:56 W 16 10.00 Overcast OVC007 45 44.1 97% 38 29.83 1010.0
15 06:56 SW 14 G 21 10.00 Overcast OVC007 45 44.1 97% 39 29.82 1009.8
15 05:56 SW 15 10.00 Overcast OVC007 45 44.1 97% 39 29.82 1009.7
15 04:56 SW 14 2.50 Light Rain Fog/Mist OVC003 45 44.1 97% 39 29.82 1009.7
15 03:56 SW 16 7.00 Overcast OVC005 45 44.1 46 45 97% 38 29.82 1009.7
15 02:56 SW 15 6.00 Light Rain Fog/Mist OVC007 45 44.1 97% 39 29.82 1009.6
15 01:56 SW 18 G 23 10.00 Light Rain OVC007 45 44.1 97% 38 29.82 1009.6
15 00:56 SW 17 G 23 10.00 Light Rain OVC007 45 44.1 97% 38 29.81 1009.5
14 23:56 SW 20 G 26 10.00 Overcast OVC005 45 44.1 97% 38 29.81 1009.3
14 22:56 SW 18 8.00 Overcast OVC005 45 44.1 97% 38 29.8 1009.0
14 21:56 SW 17 G 24 9.00 Overcast OVC007 45 44.1 46.9 45 97% 38 29.79 1008.7
14 20:56 SW 20 G 28 9.00 Overcast OVC007 45 44.1 97% 38 29.79 1008.6
14 19:56 SW 20 G 26 10.00 Overcast OVC007 46 44.1 93% 39 29.78 0.0
14 18:56 W 17 7.00 Light Rain OVC007 46 44.1 93% 40 29.79 0.0
14 17:56 SW 18 G 29 5.00 Fog/Mist OVC007 46 44.1 93% 39 29.79 0.0
14 15:56 W 25 G 29 7.00 Light Rain and Breezy BKN009 OVC013 46 44.1 46 45 93% 38 29.77 0.0
14 14:56 W 24 G 35 9.00 Light Rain and Breezy OVC009 46 44.1 93% 38 29.76 0.0
14 13:56 SW 24 G 33 4.00 Light Rain Fog/Mist and Breezy OVC009 45 44.1 97% 37 29.75 0.0
14 12:56 SW 26 G 35 9.00 Light Rain and Windy BKN007 OVC014 45 44.1 97% 36 29.74 0.0
14 11:56 W 28 G 33 4.00 Light Rain Fog/Mist and Windy OVC007 45 44.1 97% 36 29.74 0.0
14 10:56 W 24 G 32 4.00 Light Rain Fog/Mist and Breezy OVC007 45 44.1 97% 37 29.72 0.0
14 09:56 W 22 G 35 2.50 Light Rain Fog/Mist and Breezy OVC005 45 44.1 97% 37 29.71 0.0
14 08:56 SW 26 G 37 1.25 Light Rain Fog/Mist and Windy NULL 45 44.1 97% 36 29.7 0.0
14 06:56 SW 25 G 32 5.00 Light Rain Fog/Mist and Breezy OVC006 45 44.1 97% 37 29.68 1005.1
14 00:56 SW 22 G 29 10.00 Overcast and Breezy OVC008 45 44.1 97% 37 29.67 1004.7
13 23:56 SW 28 G 32 8.00 Overcast and Windy OVC008 46 43 89% 38 29.68 1004.9
13 22:56 SW 24 G 32 10.00 Overcast and Breezy OVC010 46 43 89% 38 29.68 1004.9
13 21:56 W 25 G 31 4.00 Fog/Mist and Breezy OVC008 45 43 48 45 93% 37 29.68 1004.9
13 20:56 W 26 G 32 7.00 Overcast and Windy OVC008 46 43 89% 38 29.68 1005.1
13 19:56 W 25 G 30 9.00 Overcast and Breezy SCT016 BKN026 OVC041 46.9 41 80% 39 29.69 1005.3
13 18:56 W 23 G 29 10.00 Overcast and Breezy FEW017 OVC035 46 39.9 79% 38 29.69 1005.3
13 17:56 W 20 G 23 10.00 Overcast FEW025 BKN032 OVC042 46.9 41 80% 40 29.69 1005.3
13 16:56 W 22 G 28 10.00 Mostly Cloudy and Breezy FEW040 BKN049 48 41 77% 41 29.68 1004.9
13 15:56 W 24 G 31 9.00 Overcast and Breezy FEW012 SCT020 OVC043 48 42.1 48 43 80% 41 29.67 1004.7
13 14:56 W 20 G 25 10.00 Overcast FEW014 BKN022 OVC028 46.9 39.9 77% 40 29.68 1004.9
13 13:56 W 18 10.00 Mostly Cloudy SCT020 BKN046 46.9 39.9 77% 40 29.68 1004.8
13 12:56 W 20 6.00 Fog/Mist SCT022 OVC031 43 39.9 89% 35 29.67 1004.6
13 11:56 W 18 10.00 Overcast OVC033 45 39.9 83% 38 29.66 1004.1
13 10:56 W 18 9.00 Overcast OVC007 43 42.1 97% 35 29.65 1004.0
13 09:56 W 17 1.75 Light Rain Fog/Mist BKN005 OVC013 44.1 43 44.1 43 96% 37 29.63 1003.4
13 08:56 W 9 6.00 Fog/Mist OVC004 44.1 43 96% 40 29.62 1003.1
13 07:56 W 9 10.00 Overcast BKN006 OVC011 44.1 43 96% 40 29.62 1003.0
13 06:56 W 8 8.00 Light Rain BKN006 OVC015 44.1 43 96% 40 29.62 1002.9
13 05:56 W 5 7.00 Light Rain BKN004 OVC050 44.1 43 96% 42 29.62 1002.8
13 04:56 NW 3 10.00 Light Rain BKN004 BKN015 OVC055 43 43 100% 29.63 1003.2
13 03:56 W 9 10.00 Overcast BKN005 OVC075 44.1 43 45 44.1 96% 40 29.65 1004.1
13 02:56 NW 7 1.75 Fog/Mist OVC003 44.1 43 96% 41 29.65 1004.1
13 01:56 W 6 10.00 Mostly Cloudy BKN005 BKN011 45 43 93% 42 29.66 1004.4
13 00:56 W 7 10.00 Fair CLR 45 43 93% 42 29.66 1004.4
12 23:56 W 7 10.00 Fair CLR 45 44.1 97% 42 29.67 1004.7
12 22:56 W 8 10.00 Overcast OVC014 45 44.1 97% 41 29.68 1004.9
12 21:56 W 12 10.00 Overcast OVC003 46 44.1 48 46 93% 41 29.68 1004.8
12 20:56 W 9 10.00 Overcast OVC012 46 44.1 93% 42 29.68 1004.9
12 19:56 W 10 10.00 Overcast OVC008 46 44.1 93% 42 29.67 1004.7
12 18:56 W 12 6.00 Fog/Mist OVC006 46.9 45 93% 42 29.66 1004.4
12 17:56 W 14 5.00 Fog/Mist OVC006 46.9 45 93% 42 29.66 1004.2
12 16:56 W 17 10.00 Overcast OVC006 48 45 89% 42 29.64 1003.6
Date Time (akdt) Wind (mph) Vis. (mi.) Weather Sky Cond. Air Dwpt Max. Min. Relative Humidity Wind Chill (°F) Heat Index (°F) altimeter (in) sea level (mb) 1 hr 3 hr 6 hr
6 hour
Temperature (ºF) Pressure Precipitation (in)